| time (UTC) | temp F | wind direction | speed MPH | gust MPH | rain 1hr in | rain 24hr in | rain mn in | humidity % | barometer mb |
| 20260507232748 | 51 | 0.0 | 0.0 | 0.00 | 0.00 | 0.00 | 20 | 1007.8 | |
| 20260507223622 | 51 | 0.0 | 0.0 | 0.00 | 0.00 | 0.00 | 20 | 1007.8 | |
| 20260507220400 | 51 | 0.0 | 0.0 | 0.00 | 0.00 | 0.00 | 20 | 1007.9 | |
| 20260507214103 | 52 | 0.0 | 0.0 | 0.00 | 0.00 | 0.00 | 18 | 1007.9 | |
| 20260507210359 | 52 | 0.0 | 0.0 | 0.00 | 0.00 | 0.00 | 18 | 1007.7 | |
| 20260507204953 | 52 | 0.0 | 0.0 | 0.00 | 0.00 | 0.00 | 19 | 1007.7 | |
| 20260507202717 | 52 | 0.0 | 0.0 | 0.00 | 0.00 | 0.00 | 19 | 1007.0 | |
| 20260507200359 | 52 | 0.0 | 0.0 | 0.00 | 0.00 | 0.00 | 19 | 1007.5 | |
| 20260507195214 | 52 | 0.0 | 0.0 | 0.00 | 0.00 | 0.00 | 20 | 1007.5 | |
| 20260507192714 | 52 | 0.0 | 0.0 | 0.00 | 0.00 | 0.00 | 20 | 1007.0 | |
| 20260507190359 | 52 | 0.0 | 0.0 | 0.00 | 0.00 | 0.00 | 20 | 1007.8 | |
| 20260507185310 | 51 | 0.0 | 0.0 | 0.00 | 0.00 | 0.00 | 20 | 1007.8 | |
| 20260507183004 | 51 | 0.0 | 0.0 | 0.00 | 0.00 | 0.00 | 20 | 1007.0 | |
| 20260507180204 | 52 | 0.0 | 0.0 | 0.00 | 0.00 | 0.00 | 22 | 1007.6 | |
| 20260507170907 | 52 | 0.0 | 0.0 | 0.00 | 0.00 | 0.00 | 22 | 1007.0 | |
| 20260507170359 | 52 | 0.0 | 0.0 | 0.00 | 0.00 | 0.00 | 22 | 1007.0 | |
| 20260507161752 | 50 | 0.0 | 0.0 | 0.00 | 0.00 | 0.00 | 26 | 1007.0 | |
| 20260507161206 | 50 | 0.0 | 0.0 | 0.00 | 0.00 | 0.00 | 26 | 1008.0 | |
| 20260507160358 | 50 | 0.0 | 0.0 | 0.00 | 0.00 | 0.00 | 26 | 1008.0 | |
| 20260507155453 | 50 | 0.0 | 0.0 | 0.00 | 0.00 | 0.00 | 28 | 1007.0 | |
| 20260507153640 | 50 | 0.0 | 0.0 | 0.00 | 0.00 | 0.00 | 28 | 1008.0 | |
| 20260507152129 | 50 | 0.0 | 0.0 | 0.00 | 0.00 | 0.00 | 28 | 1008.0 | |
| 20260507151625 | 50 | 0.0 | 0.0 | 0.00 | 0.00 | 0.00 | 28 | 1008.0 | |
| 20260507150400 | 50 | 0.0 | 0.0 | 0.00 | 0.00 | 0.00 | 28 | 1007.0 | |
| 20260507143102 | 49 | 0.0 | 0.0 | 0.00 | 0.00 | 0.00 | 30 | 1007.0 | |
| 20260507142447 | 49 | 0.0 | 0.0 | 0.00 | 0.00 | 0.00 | 30 | 1008.0 | |
| 20260507140358 | 49 | 0.0 | 0.0 | 0.00 | 0.00 | 0.00 | 30 | 1008.2 | |
| 20260507133211 | 48 | 0.0 | 0.0 | 0.00 | 0.00 | 0.00 | 31 | 1008.2 | |
| 20260507130358 | 48 | 0.0 | 0.0 | 0.00 | 0.00 | 0.00 | 31 | 1008.2 | |
| 20260507123310 | 47 | 0.0 | 0.0 | 0.00 | 0.00 | 0.00 | 30 | 1008.2 | |
| 20260507120358 | 47 | 0.0 | 0.0 | 0.00 | 0.00 | 0.00 | 30 | 1008.0 | |
| 20260507115805 | 48 | 0.0 | 0.0 | 0.00 | 0.00 | 0.00 | 40 | 1008.0 | |
| 20260507113942 | 48 | 0.0 | 0.0 | 0.00 | 0.00 | 0.00 | 40 | 1008.0 | |
| 20260507113358 | 48 | 0.0 | 0.0 | 0.00 | 0.00 | 0.00 | 40 | 1007.0 | |
| 20260507112358 | 48 | 0.0 | 0.0 | 0.00 | 0.00 | 0.00 | 41 | 1007.0 | |
| 20260507110358 | 48 | 0.0 | 0.0 | 0.00 | 0.00 | 0.00 | 42 | 1007.0 | |
| 20260507104653 | 48 | 0.0 | 0.0 | 0.00 | 0.00 | 0.00 | 42 | 1007.4 | |
| 20260507103857 | 48 | 0.0 | 0.0 | 0.00 | 0.00 | 0.00 | 42 | 1007.0 | |
| 20260507101357 | 48 | 0.0 | 0.0 | 0.00 | 0.00 | 0.00 | 42 | 1007.0 | |
| 20260507100356 | 48 | 0.0 | 0.0 | 0.00 | 0.00 | 0.00 | 42 | 1007.0 | |
| 20260507095143 | 48 | 0.0 | 0.0 | 0.00 | 0.00 | 0.00 | 44 | 1007.3 | |
| 20260507092132 | 48 | 0.0 | 0.0 | 0.00 | 0.00 | 0.00 | 44 | 1007.0 | |
| 20260507085857 | 48 | 0.0 | 0.0 | 0.00 | 0.00 | 0.00 | 44 | 1007.3 | |
| 20260507085322 | 48 | 0.0 | 0.0 | 0.00 | 0.00 | 0.00 | 44 | 1007.3 | |
| 20260507082115 | 48 | 0.0 | 0.0 | 0.00 | 0.00 | 0.00 | 44 | 1007.0 | |
| 20260507080356 | 48 | 0.0 | 0.0 | 0.00 | 0.00 | 0.00 | 44 | 1007.4 | |
| 20260507074942 | 48 | 0.0 | 0.0 | 0.00 | 0.00 | 0.00 | 44 | 1007.4 | |
| 20260507073653 | 48 | 0.0 | 0.0 | 0.00 | 0.00 | 0.00 | 44 | 1007.0 | |
| 20260507070356 | 48 | 0.0 | 0.0 | 0.00 | 0.00 | 0.00 | 44 | 1007.4 | |
| 20260507065644 | 47 | 0.0 | 0.0 | 0.00 | 0.00 | 0.00 | 44 | 1007.4 | |
| 20260507063549 | 47 | 0.0 | 0.0 | 0.00 | 0.00 | 0.00 | 44 | 1007.0 | |
| 20260507060356 | 47 | 0.0 | 0.0 | 0.00 | 0.00 | 0.00 | 44 | 1007.0 | |
| 20260507050907 | 48 | 0.0 | 0.0 | 0.00 | 0.00 | 0.00 | 44 | 1008.1 | |
| 20260507044631 | 47 | 0.0 | 0.0 | 0.00 | 0.00 | 0.00 | 46 | 1008.0 | |
| 20260507041026 | 47 | 0.0 | 0.0 | 0.00 | 0.00 | 0.00 | 46 | 1008.9 | |
| 20260507040411 | 48 | 0.0 | 0.0 | 0.00 | 0.00 | 0.00 | 44 | 1008.0 | |
| 20260507031335 | 48 | 0.0 | 0.0 | 0.00 | 0.00 | 0.00 | 44 | 1009.1 | |
| 20260507030559 | 48 | 0.0 | 0.0 | 0.00 | 0.00 | 0.00 | 44 | 1009.4 | |
| 20260507022038 | 48 | 0.0 | 0.0 | 0.00 | 0.00 | 0.00 | 42 | 1009.4 | |
| 20260507020559 | 48 | 0.0 | 0.0 | 0.00 | 0.00 | 0.00 | 42 | 1009.7 | |
| 20260507012901 | 49 | 0.0 | 0.0 | 0.00 | 0.00 | 0.00 | 41 | 1009.7 | |
| 20260507010559 | 49 | 0.0 | 0.0 | 0.00 | 0.00 | 0.00 | 41 | 1009.0 | |
| 20260507004803 | 49 | 0.0 | 0.0 | 0.00 | 0.00 | 0.00 | 38 | 1009.0 | |
| 20260507003433 | 49 | 0.0 | 0.0 | 0.00 | 0.00 | 0.00 | 38 | 1009.4 | |
| 20260507000559 | 49 | 0.0 | 0.0 | 0.00 | 0.00 | 0.00 | 38 | 1009.0 | |
| 20260506235847 | 49 | 0.0 | 0.0 | 0.00 | 0.00 | 0.00 | 38 | 1008.0 |